Content
SEND FEEDBACK

Daily
Averages
Monthly
Summary
Mexico

PLAYA DEL CARMEN, QUINTANA ROO


Home > North America > Mexico > Quintana Roo
Elevation: 30 feet     Latitude: 20 38N     Longitude: 087 04W

WEATHER
 
SELECT A DAY
Number of Records: 196,972;   Date Range: 2/21/06 - 9/21/14
 
SHARE

PRINT THIS DATA

[ ← Previous Day ]
WEATHER ALMANAC - AUGUST 25, 2013
[ Next Day → ]
[ °C ]   °F
Weather ElementAverageHighLow
Barometer30.15 in30.19 in (10:35 am)30.10 in (4:15 pm)
Wind Speed4.9 mph12.7 mph (8:55 am)
Wind Gust18.4 mph (5:15 pm)
Weather ElementAverage
Visibility9.7 mi
Wind DirectionENE (58.7 °)

Weather ElementTotal
Precipitation---
Heating Degree Days65 (Base 65)
Averaged from 71 records on August 25, 2013
WEATHER CONDITIONS BREAKOUT
WIND DIRECTION BREAKOUT
WEATHER BY HOUR - AUGUST 25, 2013
[ °C ]   °F
Local TimeTemperatureDewpointHumidityBarometerVisibilityWind DirectionWind SpeedGust SpeedPrecipitationEventsConditions
12:35 AM0.0 °F0.0 °F30.15 in10.0 miCalmMostly Cloudy
12:55 AM0.0 °F0.0 °F30.14 in10.0 miCalmScattered Clouds
1:15 AM0.0 °F0.0 °F30.13 in10.0 miCalmScattered Clouds
1:35 AM0.0 °F0.0 °F30.13 in10.0 miCalmClear
1:55 AM0.0 °F0.0 °F30.13 in10.0 miNorth (360°)3.5 mphClear
2:15 AM0.0 °F0.0 °F30.13 in10.0 miNorth (10°)3.5 mphMostly Cloudy
2:35 AM0.0 °F0.0 °F30.12 in10.0 miNNE (20°)4.6 mphOvercast
2:55 AM0.0 °F0.0 °F30.12 in10.0 miNNE (30°)5.8 mphOvercast
3:15 AM0.0 °F0.0 °F30.12 in10.0 miNNE (20°)3.5 mphMostly Cloudy
3:35 AM0.0 °F0.0 °F30.12 in10.0 miNE (40°)4.6 mphMostly Cloudy
3:55 AM0.0 °F0.0 °F30.12 in10.0 miNE (40°)4.6 mphScattered Clouds
4:15 AM0.0 °F0.0 °F30.12 in10.0 miNE (50°)3.5 mphScattered Clouds
4:35 AM0.0 °F0.0 °F30.12 in10.0 miENE (60°)3.5 mphClear
4:55 AM0.0 °F0.0 °F30.12 in10.0 miNE (50°)3.5 mphClear
5:15 AM0.0 °F0.0 °F30.14 in10.0 miCalmClear
5:35 AM0.0 °F0.0 °F30.14 in10.0 miCalmClear
5:55 AM0.0 °F0.0 °F30.15 in10.0 miEast (90°)3.5 mphScattered Clouds
6:15 AM0.0 °F0.0 °F30.15 in7.0 miCalmScattered Clouds
6:35 AM0.0 °F0.0 °F30.15 in10.0 miCalmClear
6:55 AM0.0 °F0.0 °F30.15 in7.0 miENE (60°)4.6 mphClear
7:15 AM0.0 °F0.0 °F30.16 in7.0 miNE (40°)5.8 mphClear
7:35 AM0.0 °F0.0 °F30.16 in7.0 miNE (50°)5.8 mphClear
7:55 AM0.0 °F0.0 °F30.17 in7.0 miNE (50°)5.8 mphMostly Cloudy
8:15 AM0.0 °F0.0 °F30.16 in7.0 miNE (50°)4.6 mphMostly Cloudy
8:35 AM0.0 °F0.0 °F30.16 in10.0 miNE (40°)9.2 mphScattered Clouds
8:55 AM0.0 °F0.0 °F30.16 in10.0 miNE (50°)12.7 mphScattered Clouds
9:15 AM0.0 °F0.0 °F30.17 in10.0 miNE (40°)10.4 mphClear
9:35 AM0.0 °F0.0 °F30.17 in10.0 miNE (40°)9.2 mphClear
9:55 AM0.0 °F0.0 °F30.18 in10.0 miNE (50°)8.1 mphClear
10:15 AM0.0 °F0.0 °F30.18 in10.0 miNE (40°)6.9 mphClear
10:35 AM0.0 °F0.0 °F30.19 in10.0 miNE (50°)10.4 mphClear
10:55 AM0.0 °F0.0 °F30.19 in10.0 miNE (40°)9.2 mphClear
11:15 AM0.0 °F0.0 °F30.19 in10.0 miENE (60°)8.1 mphClear
11:35 AM0.0 °F0.0 °F30.19 in10.0 miENE (70°)8.1 mphClear
11:55 AM0.0 °F0.0 °F30.18 in10.0 miENE (60°)8.1 mphClear
12:15 PM0.0 °F0.0 °F30.19 in10.0 miNE (50°)11.5 mphClear
12:35 PM0.0 °F0.0 °F30.18 in10.0 miENE (60°)8.1 mphClear
12:55 PM0.0 °F0.0 °F30.18 in10.0 miENE (60°)8.1 mphClear
1:15 PM0.0 °F0.0 °F30.17 in10.0 miENE (60°)6.9 mphScattered Clouds
1:35 PM0.0 °F0.0 °F30.16 in10.0 miENE (70°)9.2 mphScattered Clouds
1:55 PM0.0 °F0.0 °F30.15 in10.0 miNNE (30°)8.1 mphScattered Clouds
2:15 PM0.0 °F0.0 °F30.15 in10.0 miENE (60°)8.1 mphScattered Clouds
2:35 PM0.0 °F0.0 °F30.14 in10.0 miNE (40°)6.9 mphScattered Clouds
2:55 PM0.0 °F0.0 °F30.13 in10.0 miENE (60°)6.9 mphScattered Clouds
3:15 PM0.0 °F0.0 °F30.13 in10.0 miENE (60°)9.2 mphScattered Clouds
3:35 PM0.0 °F0.0 °F30.12 in10.0 miNE (40°)9.2 mphClear
3:55 PM0.0 °F0.0 °F30.11 in10.0 miEast (90°)5.8 mphScattered Clouds
4:15 PM0.0 °F0.0 °F30.10 in10.0 miENE (60°)9.2 mphClear
4:35 PM0.0 °F0.0 °F30.10 in10.0 miESE (110°)3.5 mphScattered Clouds
4:55 PM0.0 °F0.0 °F30.11 in10.0 miENE (60°)9.2 mphMostly Cloudy
5:15 PM0.0 °F0.0 °F30.11 in10.0 miENE (60°)12.7 mph18.4 mphMostly Cloudy
5:35 PM0.0 °F0.0 °F30.12 in10.0 miEast (90°)9.2 mphLight Drizzle
5:55 PM0.0 °F0.0 °F30.12 in10.0 miESE (120°)8.1 mphClear
6:15 PM0.0 °F0.0 °F30.13 in10.0 miSSE (160°)3.5 mphMostly Cloudy
6:35 PM0.0 °F0.0 °F30.13 in10.0 miSSE (160°)4.6 mphScattered Clouds
6:55 PM0.0 °F0.0 °F30.13 in10.0 miCalmScattered Clouds
7:15 PM0.0 °F0.0 °F30.13 in10.0 miCalmScattered Clouds
7:35 PM0.0 °F0.0 °F30.13 in10.0 miCalmClear
7:55 PM0.0 °F0.0 °F30.14 in10.0 miCalmClear
8:15 PM0.0 °F0.0 °F30.15 in10.0 miWSW (250°)3.5 mphScattered Clouds
8:35 PM0.0 °F0.0 °F30.15 in10.0 miSW (220°)4.6 mphScattered Clouds
8:55 PM0.0 °F0.0 °F30.16 in10.0 miWest (260°)3.5 mphClear
9:15 PM0.0 °F0.0 °F30.17 in10.0 miCalmClear
9:35 PM0.0 °F0.0 °F30.17 in10.0 miCalmClear
9:55 PM0.0 °F0.0 °F30.18 in10.0 miCalmClear
10:15 PM0.0 °F0.0 °F30.18 in10.0 miCalmScattered Clouds
10:35 PM0.0 °F0.0 °F30.18 in10.0 miCalmScattered Clouds
10:55 PM0.0 °F0.0 °F30.17 in10.0 miNNE (20°)3.5 mphClear
11:15 PM0.0 °F0.0 °F30.17 in10.0 miNorth (360°)4.6 mphClear
11:35 PM0.0 °F0.0 °F30.17 in10.0 miCalmClear
11:55 PM0.0 °F0.0 °F30.17 in10.0 miCalmClear
Hourly data recorded from KPCM, located miles away from Playa del Carmen, Quintana Roo







STORIES FROM OUR PARTNERS